,,PA_Meas_PMT16A,,PR_Meas_QMR101_102,,RH_Meas_QMH101,,SR_Meas_QMS101,,TA_Meas_QMH101,,GenWind,,GenWind,
time,status,PA,status,PR,status,RH,status,SR,status,TA,status,DirAvg,status,SpdAvg,
2010-12-04, 00:00:05,VALID,915.77,VALID,0,VALID,94.9115,VALID,0,VALID,20.1903,VALID,23,VALID,0,
2010-12-04, 00:01:05,VALID,915.773,VALID,0,VALID,94.9268,VALID,0,VALID,20.1708,VALID,23,VALID,0,
2010-12-04, 00:02:05,VALID,915.762,VALID,0,VALID,94.9039,VALID,0,VALID,20.1513,VALID,23,VALID,0.624219,
2010-12-04, 00:03:05,VALID,915.753,VALID,0,VALID,94.9954,VALID,0,VALID,20.1513,VALID,23,VALID,0.386328,
2010-12-04, 00:04:05,VALID,915.753,VALID,0,VALID,95.003,VALID,0,VALID,20.1318,VALID,23,VALID,0.703125,
2010-12-04, 00:05:05,VALID,915.763,VALID,0,VALID,95.0716,VALID,0,VALID,20.1318,VALID,23,VALID,0.00820312,
2010-12-04, 00:06:05,VALID,915.735,VALID,0,VALID,95.1936,VALID,0,VALID,20.1513,VALID,23,VALID,0,
2010-12-04, 00:07:05,VALID,915.745,VALID,0,VALID,95.3156,VALID,0,VALID,20.1529,VALID,23,VALID,0.257031,
2010-12-04, 00:08:05,VALID,915.729,VALID,0,VALID,95.3766,VALID,0,VALID,20.1318,VALID,23,VALID,0,
2010-12-04, 00:09:05,VALID,915.751,VALID,0,VALID,95.4071,VALID,0,VALID,20.1318,VALID,23,VALID,0.607422,
2010-12-04, 00:10:05,VALID,915.712,VALID,0,VALID,95.4147,VALID,0,VALID,20.1318,VALID,23,VALID,0.494141,
2010-12-04, 00:11:05,VALID,915.7,VALID,0,VALID,95.4299,VALID,0,VALID,20.1318,VALID,23,VALID,0.608594,
2010-12-04, 00:12:05,VALID,915.751,VALID,0,VALID,95.3766,VALID,0,VALID,20.1318,VALID,23,VALID,0.485156,
2010-12-04, 00:13:05,VALID,915.763,VALID,0,VALID,95.3003,VALID,0,VALID,20.1318,VALID,23,VALID,0.638281,
2010-12-04, 00:14:05,VALID,915.743,VALID,0,VALID,95.3232,VALID,0,VALID,20.1303,VALID,23,VALID,0.448047,
2010-12-04, 00:15:05,VALID,915.75,VALID,0,VALID,95.3232,VALID,0,VALID,20.1108,VALID,344,VALID,0.835156,
2010-12-04, 00:16:05,VALID,915.752,VALID,0,VALID,95.5443,VALID,0,VALID,20.1108,VALID,344,VALID,0.560938,
2010-12-04, 00:17:05,VALID,915.748,VALID,0,VALID,95.7044,VALID,0,VALID,20.1498,VALID,344,VALID,0.420312,
2010-12-04, 00:18:05,VALID,915.765,VALID,0,VALID,95.8797,VALID,0,VALID,20.1693,VALID,344,VALID,0.747266,
2010-12-04, 00:19:05,VALID,915.775,VALID,0,VALID,95.9864,VALID,0,VALID,20.1888,VALID,344,VALID,0.708594,
2010-12-04, 00:20:05,VALID,915.772,VALID,0,VALID,96.0322,VALID,0.107441,VALID,20.2083,VALID,344,VALID,0.761328,
2010-12-04, 00:21:05,VALID,915.784,VALID,0,VALID,96.0932,VALID,0,VALID,20.2083,VALID,345,VALID,0.901563,
2010-12-04, 00:22:05,VALID,915.801,VALID,0,VALID,96.1313,VALID,0.107441,VALID,20.2293,VALID,19,VALID,0.785547,
2010-12-04, 00:23:05,VALID,915.824,VALID,0.2,VALID,96.1923,VALID,0.107441,VALID,20.2083,VALID,19,VALID,1.07773,
2010-12-04, 00:24:05,VALID,915.81,VALID,0,VALID,96.2456,VALID,0.107441,VALID,20.1888,VALID,19,VALID,0.825781,
2010-12-04, 00:25:05,VALID,915.823,VALID,0.2,VALID,96.2761,VALID,0.107441,VALID,20.2083,VALID,19,VALID,0.860547,
2010-12-04, 00:26:05,VALID,915.804,VALID,0.2,VALID,96.2456,VALID,0,VALID,20.1888,VALID,19,VALID,0.486328,
2010-12-04, 00:27:05,VALID,915.828,VALID,0,VALID,96.2609,VALID,0.107441,VALID,20.1498,VALID,19,VALID,1.25547,
2010-12-04, 00:28:05,VALID,915.822,VALID,0.2,VALID,96.3371,VALID,0,VALID,20.1498,VALID,19,VALID,1.12344,
2010-12-04, 00:29:05,VALID,915.807,VALID,0,VALID,96.3752,VALID,0,VALID,20.1498,VALID,355,VALID,0.996484,
2010-12-04, 00:30:05,VALID,915.78,VALID,0.2,VALID,96.3219,VALID,0,VALID,20.0913,VALID,16,VALID,1.33281,
2010-12-04, 00:31:05,VALID,915.755,VALID,0,VALID,96.3981,VALID,0.107441,VALID,20.0913,VALID,16,VALID,0.926562,
2010-12-04, 00:32:05,VALID,915.712,VALID,0.2,VALID,96.4896,VALID,0,VALID,20.1123,VALID,16,VALID,0.219141,
2010-12-04, 00:33:05,VALID,915.691,VALID,0,VALID,96.3981,VALID,0.107441,VALID,20.0733,VALID,354,VALID,0.829687,
2010-12-04, 00:34:05,VALID,915.685,VALID,0.2,VALID,96.4743,VALID,0,VALID,20.0328,VALID,30,VALID,1.04414,
2010-12-04, 00:35:05,VALID,915.678,VALID,0,VALID,96.4972,VALID,0,VALID,20.0133,VALID,26,VALID,2.07422,
2010-12-04, 00:36:05,VALID,915.684,VALID,0,VALID,96.5582,VALID,0,VALID,20.0538,VALID,22,VALID,1.03867,
2010-12-04, 00:37:05,VALID,915.664,VALID,0,VALID,96.5506,VALID,0,VALID,20.0328,VALID,358,VALID,1.19375,
2010-12-04, 00:38:05,VALID,915.658,VALID,0.2,VALID,96.3981,VALID,0.107441,VALID,19.9743,VALID,323,VALID,1.51133,
2010-12-04, 00:39:05,VALID,915.629,VALID,0.2,VALID,96.2761,VALID,0.107441,VALID,19.8573,VALID,277,VALID,0.6125,
2010-12-04, 00:40:05,VALID,915.57,VALID,0,VALID,96.4591,VALID,0,VALID,19.8573,VALID,27,VALID,3.11172,
2010-12-04, 00:41:05,VALID,915.578,VALID,0.2,VALID,96.3905,VALID,0,VALID,19.7988,VALID,12,VALID,1.60547,
2010-12-04, 00:42:05,VALID,915.626,VALID,0.2,VALID,96.5048,VALID,0,VALID,19.7988,VALID,356,VALID,1.07852,
2010-12-04, 00:43:05,VALID,915.598,VALID,0,VALID,96.642,VALID,0.107441,VALID,19.8768,VALID,331,VALID,0.732813,
2010-12-04, 00:44:05,VALID,915.593,VALID,0.2,VALID,96.5811,VALID,0,VALID,19.8198,VALID,22,VALID,1.40781,
2010-12-04, 00:45:05,VALID,915.607,VALID,0.2,VALID,96.5963,VALID,0,VALID,19.8003,VALID,22,VALID,0.914844,
2010-12-04, 00:46:05,VALID,915.624,VALID,0.4,VALID,96.5353,VALID,0,VALID,19.7808,VALID,22,VALID,1.26523,
2010-12-04, 00:47:05,VALID,915.624,VALID,0.6,VALID,96.5582,VALID,0,VALID,19.7628,VALID,2,VALID,1.21406,
2010-12-04, 00:48:05,VALID,915.538,VALID,0.6,VALID,96.4438,VALID,0,VALID,19.6833,VALID,18,VALID,2.26445,
2010-12-04, 00:49:05,VALID,915.504,VALID,0.6,VALID,96.4591,VALID,0,VALID,19.6458,VALID,35,VALID,2.76211,
2010-12-04, 00:50:05,VALID,915.539,VALID,0.6,VALID,96.5124,VALID,0,VALID,19.6053,VALID,20,VALID,2.40078,
2010-12-04, 00:51:05,VALID,915.534,VALID,0.4,VALID,96.6039,VALID,0,VALID,19.5678,VALID,30,VALID,1.89375,
2010-12-04, 00:52:05,VALID,915.528,VALID,0.4,VALID,96.6192,VALID,0,VALID,19.5468,VALID,32,VALID,2.34961,
2010-12-04, 00:53:05,VALID,915.555,VALID,0.4,VALID,96.703,VALID,0,VALID,19.5273,VALID,11,VALID,1.99336,
2010-12-04, 00:54:05,VALID,915.545,VALID,0.4,VALID,96.7107,VALID,0,VALID,19.5078,VALID,29,VALID,1.42539,
2010-12-04, 00:55:05,VALID,915.521,VALID,0.4,VALID,96.764,VALID,0,VALID,19.5078,VALID,19,VALID,2.47969,
2010-12-04, 00:56:05,VALID,915.528,VALID,0.4,VALID,96.7411,VALID,0,VALID,19.4688,VALID,30,VALID,3.74492,
2010-12-04, 00:57:05,VALID,915.531,VALID,0.2,VALID,96.6344,VALID,0,VALID,19.3713,VALID,20,VALID,2.43086,
2010-12-04, 00:58:05,VALID,915.51,VALID,0.4,VALID,96.7716,VALID,0,VALID,19.3518,VALID,34,VALID,2.81484,
2010-12-04, 00:59:05,VALID,915.462,VALID,0.2,VALID,96.7793,VALID,0,VALID,19.3308,VALID,32,VALID,2.7918,
2010-12-04, 01:00:05,VALID,915.488,VALID,0.4,VALID,96.8098,VALID,0,VALID,19.3323,VALID,27,VALID,2.44648,
2010-12-04, 01:01:05,VALID,915.435,VALID,0.2,VALID,96.8174,VALID,0.107441,VALID,19.2918,VALID,22,VALID,3.24297,
2010-12-04, 01:02:05,VALID,915.458,VALID,0.2,VALID,96.8098,VALID,0,VALID,19.2348,VALID,25,VALID,3.03281,
2010-12-04, 01:03:05,VALID,915.426,VALID,0.2,VALID,96.8707,VALID,0.107441,VALID,19.2139,VALID,28,VALID,2.36094,
2010-12-04, 01:04:05,VALID,915.463,VALID,0.2,VALID,96.9012,VALID,0.107441,VALID,19.1944,VALID,56,VALID,1.63398,
2010-12-04, 01:05:04,VALID,915.446,VALID,0.2,VALID,96.9241,VALID,0.107441,VALID,19.2153,VALID,26,VALID,0.501953,
2010-12-04, 01:06:04,VALID,915.445,VALID,0.2,VALID,96.9165,VALID,0,VALID,19.1944,VALID,24,VALID,1.83633,
2010-12-04, 01:07:04,VALID,915.437,VALID,0.2,VALID,96.9927,VALID,0,VALID,19.1554,VALID,19,VALID,1.30586,
2010-12-04, 01:08:04,VALID,915.421,VALID,0.2,VALID,97.008,VALID,0.107441,VALID,19.2139,VALID,19,VALID,0.55,
2010-12-04, 01:09:04,VALID,915.369,VALID,0.2,VALID,97.0156,VALID,0,VALID,19.2153,VALID,14,VALID,1.54961,
2010-12-04, 01:10:04,VALID,915.392,VALID,0.2,VALID,97.008,VALID,0,VALID,19.1554,VALID,28,VALID,1.14609,
2010-12-04, 01:11:04,VALID,915.382,VALID,0.2,VALID,96.9851,VALID,0,VALID,19.1568,VALID,28,VALID,0.654688,
2010-12-04, 01:12:04,VALID,915.359,VALID,0.2,VALID,97.008,VALID,0.107441,VALID,19.1359,VALID,28,VALID,0.0644531,
2010-12-04, 01:13:04,VALID,915.373,VALID,0.4,VALID,97.0308,VALID,0,VALID,19.0969,VALID,28,VALID,0.842969,
2010-12-04, 01:14:04,VALID,915.34,VALID,0.2,VALID,97.0461,VALID,0.107441,VALID,19.1164,VALID,28,VALID,0.906641,
2010-12-04, 01:15:04,VALID,915.305,VALID,0.2,VALID,97.1223,VALID,0,VALID,19.1359,VALID,28,VALID,1.31211,
2010-12-04, 01:16:04,VALID,915.275,VALID,0.2,VALID,97.1223,VALID,0.107441,VALID,19.1763,VALID,28,VALID,0.403125,
2010-12-04, 01:17:04,VALID,915.25,VALID,0,VALID,97.1071,VALID,0,VALID,19.1359,VALID,28,VALID,1.55938,
2010-12-04, 01:18:04,VALID,915.231,VALID,0.2,VALID,97.1147,VALID,0.107441,VALID,19.1568,VALID,28,VALID,1.01445,
2010-12-04, 01:19:04,VALID,915.217,VALID,0.2,VALID,97.1299,VALID,0,VALID,19.1763,VALID,335,VALID,0.435937,
2010-12-04, 01:20:04,VALID,915.191,VALID,0,VALID,97.1147,VALID,0,VALID,19.1373,VALID,27,VALID,0.783594,
2010-12-04, 01:21:04,VALID,915.206,VALID,0.2,VALID,97.1681,VALID,0,VALID,19.1373,VALID,27,VALID,0.326562,
2010-12-04, 01:22:04,VALID,915.209,VALID,0,VALID,97.1986,VALID,0,VALID,19.1568,VALID,27,VALID,0.130469,
2010-12-04, 01:23:04,VALID,915.172,VALID,0.2,VALID,97.1757,VALID,0,VALID,19.1763,VALID,27,VALID,0.0164062,
2010-12-04, 01:24:04,VALID,915.118,VALID,0,VALID,97.1833,VALID,0,VALID,19.1763,VALID,27,VALID,1.11328,
2010-12-04, 01:25:04,VALID,915.125,VALID,0.2,VALID,97.1909,VALID,0,VALID,19.1568,VALID,29,VALID,0.918359,
2010-12-04, 01:26:04,VALID,915.131,VALID,0,VALID,97.1986,VALID,0,VALID,19.1568,VALID,37,VALID,0.0410156,
2010-12-04, 01:27:04,VALID,915.121,VALID,0.2,VALID,97.1833,VALID,0,VALID,19.1568,VALID,37,VALID,1.09961,
2010-12-04, 01:28:04,VALID,915.081,VALID,0,VALID,97.1909,VALID,0,VALID,19.1359,VALID,37,VALID,1.12852,
2010-12-04, 01:29:04,VALID,915.07,VALID,0,VALID,97.1833,VALID,0,VALID,19.1568,VALID,37,VALID,1.05664,
2010-12-04, 01:30:04,VALID,915.075,VALID,0,VALID,97.2519,VALID,0,VALID,19.1763,VALID,37,VALID,0.482031,
2010-12-04, 01:31:04,VALID,915.053,VALID,0.2,VALID,97.229,VALID,0,VALID,19.1763,VALID,37,VALID,0.000390625,
2010-12-04, 01:32:04,VALID,915.062,VALID,0,VALID,97.2443,VALID,0,VALID,19.1763,VALID,37,VALID,0.644141,
2010-12-04, 01:33:04,VALID,915.023,VALID,0,VALID,97.1909,VALID,0,VALID,19.1373,VALID,37,VALID,0.814453,
2010-12-04, 01:34:04,VALID,915.003,VALID,0.2,VALID,97.1681,VALID,0,VALID,19.1178,VALID,355,VALID,1.16602,
2010-12-04, 01:35:04,VALID,914.964,VALID,0,VALID,97.2519,VALID,0,VALID,19.0983,VALID,15,VALID,1.12031,
2010-12-04, 01:36:04,VALID,914.944,VALID,0,VALID,97.229,VALID,0,VALID,19.0983,VALID,15,VALID,1.14102,
2010-12-04, 01:37:04,VALID,914.917,VALID,0,VALID,97.2443,VALID,0,VALID,19.0983,VALID,15,VALID,0.549609,
2010-12-04, 01:38:04,VALID,914.906,VALID,0.2,VALID,97.2062,VALID,0,VALID,19.0803,VALID,15,VALID,0.760547,
2010-12-04, 01:39:04,VALID,914.918,VALID,0,VALID,97.2672,VALID,0,VALID,19.0788,VALID,15,VALID,1.31328,
2010-12-04, 01:40:04,VALID,914.907,VALID,0,VALID,97.3129,VALID,0,VALID,19.0983,VALID,15,VALID,1.00039,
2010-12-04, 01:41:04,VALID,914.875,VALID,0.2,VALID,97.1986,VALID,0,VALID,19.0788,VALID,14,VALID,1.36445,
2010-12-04, 01:42:04,VALID,914.858,VALID,0,VALID,97.29,VALID,0,VALID,19.0593,VALID,13,VALID,0.99375,
2010-12-04, 01:43:04,VALID,914.83,VALID,0,VALID,97.2824,VALID,0,VALID,19.0593,VALID,13,VALID,0.176953,
2010-12-04, 01:44:04,VALID,914.8,VALID,0,VALID,97.2748,VALID,0,VALID,19.0593,VALID,13,VALID,1.3582,
2010-12-04, 01:45:04,VALID,914.755,VALID,0,VALID,97.3281,VALID,0,VALID,19.0788,VALID,22,VALID,0.655859,
2010-12-04, 01:46:04,VALID,914.708,VALID,0.2,VALID,97.3358,VALID,0,VALID,19.0788,VALID,24,VALID,1.3043,
2010-12-04, 01:47:04,VALID,914.746,VALID,0,VALID,97.2824,VALID,0,VALID,19.0788,VALID,24,VALID,0.930078,
2010-12-04, 01:48:04,VALID,914.739,VALID,0,VALID,97.29,VALID,0,VALID,19.0593,VALID,26,VALID,1.13672,
2010-12-04, 01:49:04,VALID,914.752,VALID,0,VALID,97.3053,VALID,0,VALID,19.0788,VALID,24,VALID,1.52031,
2010-12-04, 01:50:04,VALID,914.723,VALID,0,VALID,97.3281,VALID,0,VALID,19.0788,VALID,31,VALID,0.923047,
2010-12-04, 01:51:04,VALID,914.727,VALID,0,VALID,97.3281,VALID,0,VALID,19.0788,VALID,31,VALID,1.31914,
2010-12-04, 01:52:04,VALID,914.701,VALID,0.2,VALID,97.2672,VALID,0,VALID,19.0593,VALID,20,VALID,1.35,
2010-12-04, 01:53:04,VALID,914.698,VALID,0,VALID,97.29,VALID,0,VALID,19.0398,VALID,13,VALID,1.21992,
2010-12-04, 01:54:04,VALID,914.717,VALID,0,VALID,97.3434,VALID,0,VALID,19.0384,VALID,43,VALID,0.399609,
2010-12-04, 01:55:04,VALID,914.666,VALID,0,VALID,97.3281,VALID,0,VALID,19.0593,VALID,43,VALID,1.00352,
2010-12-04, 01:56:04,VALID,914.634,VALID,0,VALID,97.3358,VALID,0,VALID,19.0593,VALID,43,VALID,0.957031,
2010-12-04, 01:57:04,VALID,914.639,VALID,0.2,VALID,97.3586,VALID,0,VALID,19.0788,VALID,43,VALID,0.677734,
2010-12-04, 01:58:04,VALID,914.631,VALID,0,VALID,97.3129,VALID,0,VALID,19.0788,VALID,43,VALID,1.02109,
2010-12-04, 01:59:04,VALID,914.596,VALID,0,VALID,97.3739,VALID,0,VALID,19.0788,VALID,43,VALID,1.01367,
2010-12-04, 02:00:04,VALID,914.6,VALID,0,VALID,97.3434,VALID,0,VALID,19.0788,VALID,43,VALID,1.35234,
2010-12-04, 02:01:04,VALID,914.568,VALID,0,VALID,97.3129,VALID,0,VALID,19.0803,VALID,24,VALID,1.10977,
2010-12-04, 02:02:04,VALID,914.543,VALID,0.2,VALID,97.3739,VALID,0,VALID,19.0803,VALID,2,VALID,1.31953,
2010-12-04, 02:03:04,VALID,914.528,VALID,0,VALID,97.3891,VALID,0,VALID,19.0788,VALID,19,VALID,1.46016,
2010-12-04, 02:04:04,VALID,914.522,VALID,0,VALID,97.3968,VALID,0,VALID,19.1193,VALID,19,VALID,0.600781,
2010-12-04, 02:05:04,VALID,914.5,VALID,0,VALID,97.3586,VALID,0,VALID,19.0983,VALID,19,VALID,0,
2010-12-04, 02:06:04,VALID,914.495,VALID,0,VALID,97.3739,VALID,0,VALID,19.0983,VALID,19,VALID,1.30469,
2010-12-04, 02:07:04,VALID,914.433,VALID,0.2,VALID,97.3815,VALID,0,VALID,19.0983,VALID,19,VALID,1.52773,
2010-12-04, 02:08:04,VALID,914.426,VALID,0,VALID,97.3586,VALID,0,VALID,19.0788,VALID,18,VALID,0.876953,
2010-12-04, 02:09:04,VALID,914.411,VALID,0,VALID,97.3815,VALID,0,VALID,19.0774,VALID,18,VALID,1.53437,
2010-12-04, 02:10:04,VALID,914.357,VALID,0,VALID,97.3586,VALID,0,VALID,19.1178,VALID,18,VALID,0.644531,
2010-12-04, 02:11:04,VALID,914.379,VALID,0,VALID,97.3815,VALID,0,VALID,19.0983,VALID,18,VALID,0.932813,
2010-12-04, 02:12:04,VALID,914.365,VALID,0,VALID,97.3663,VALID,0,VALID,19.0983,VALID,18,VALID,0.0441406,
2010-12-04, 02:13:04,VALID,914.305,VALID,0,VALID,97.3434,VALID,0,VALID,19.0788,VALID,18,VALID,0.905078,
2010-12-04, 02:14:04,VALID,914.312,VALID,0,VALID,97.4273,VALID,0.107441,VALID,19.0983,VALID,18,VALID,0.882813,
2010-12-04, 02:15:04,VALID,914.284,VALID,0,VALID,97.3891,VALID,0,VALID,19.0983,VALID,18,VALID,1.60859,
2010-12-04, 02:16:04,VALID,914.258,VALID,0.2,VALID,97.3968,VALID,0,VALID,19.0983,VALID,18,VALID,1.21797,
2010-12-04, 02:17:04,VALID,914.256,VALID,0,VALID,97.3968,VALID,0,VALID,19.0983,VALID,18,VALID,0.532031,
2010-12-04, 02:18:04,VALID,914.217,VALID,0,VALID,97.3434,VALID,0,VALID,19.0983,VALID,18,VALID,0.864453,
2010-12-04, 02:19:04,VALID,914.221,VALID,0,VALID,97.4273,VALID,0,VALID,19.0788,VALID,18,VALID,0.74375,
2010-12-04, 02:20:04,VALID,914.227,VALID,0,VALID,97.4273,VALID,0,VALID,19.1178,VALID,18,VALID,0.883594,
2010-12-04, 02:21:04,VALID,914.201,VALID,0,VALID,97.4044,VALID,0,VALID,19.1178,VALID,18,VALID,0.720703,
2010-12-04, 02:22:04,VALID,914.197,VALID,0,VALID,97.3663,VALID,0,VALID,19.0788,VALID,18,VALID,0.525781,
2010-12-04, 02:23:04,VALID,914.187,VALID,0,VALID,97.3968,VALID,0,VALID,19.0788,VALID,82,VALID,0.930078,
2010-12-04, 02:24:04,VALID,914.179,VALID,0,VALID,97.4273,VALID,0,VALID,19.0774,VALID,57,VALID,0.977344,
2010-12-04, 02:25:04,VALID,914.176,VALID,0,VALID,97.4196,VALID,0,VALID,19.0983,VALID,23,VALID,0.642578,
2010-12-04, 02:26:04,VALID,914.128,VALID,0,VALID,97.4349,VALID,0,VALID,19.0983,VALID,23,VALID,0.717578,
2010-12-04, 02:27:04,VALID,914.17,VALID,0,VALID,97.4349,VALID,0,VALID,19.0969,VALID,23,VALID,0,
2010-12-04, 02:28:04,VALID,914.163,VALID,0,VALID,97.4044,VALID,0,VALID,19.1178,VALID,23,VALID,0.278906,
2010-12-04, 02:29:04,VALID,914.145,VALID,0,VALID,97.412,VALID,0,VALID,19.0983,VALID,23,VALID,0.784375,
2010-12-04, 02:30:04,VALID,914.13,VALID,0,VALID,97.4273,VALID,0,VALID,19.1193,VALID,23,VALID,0.0285156,
2010-12-04, 02:31:04,VALID,914.115,VALID,0,VALID,97.4273,VALID,0,VALID,19.1178,VALID,23,VALID,0.567969,
2010-12-04, 02:32:04,VALID,914.149,VALID,0,VALID,97.4273,VALID,0,VALID,19.1373,VALID,23,VALID,0.221875,
2010-12-04, 02:33:04,VALID,914.128,VALID,0,VALID,97.4273,VALID,0,VALID,19.1373,VALID,23,VALID,0,
2010-12-04, 02:34:04,VALID,914.16,VALID,0,VALID,97.4273,VALID,0,VALID,19.1373,VALID,23,VALID,0,
2010-12-04, 02:35:04,VALID,914.195,VALID,0,VALID,97.4273,VALID,0,VALID,19.1178,VALID,23,VALID,0,
2010-12-04, 02:36:04,VALID,914.139,VALID,0,VALID,97.412,VALID,0,VALID,19.0788,VALID,23,VALID,0,
2010-12-04, 02:37:04,VALID,914.131,VALID,0,VALID,97.4196,VALID,0,VALID,19.0803,VALID,23,VALID,0,
2010-12-04, 02:38:04,VALID,914.167,VALID,0.2,VALID,97.4349,VALID,0,VALID,19.0788,VALID,23,VALID,0.00273437,
2010-12-04, 02:39:04,VALID,914.132,VALID,0,VALID,97.4349,VALID,0,VALID,19.0788,VALID,23,VALID,0.456641,
2010-12-04, 02:40:04,VALID,914.128,VALID,0,VALID,97.4425,VALID,0,VALID,19.0788,VALID,23,VALID,0.982813,
2010-12-04, 02:41:04,VALID,914.158,VALID,0,VALID,97.4425,VALID,0,VALID,19.0788,VALID,23,VALID,0.692578,
2010-12-04, 02:42:04,VALID,914.154,VALID,0,VALID,97.4425,VALID,0,VALID,19.0983,VALID,23,VALID,0.416016,
2010-12-04, 02:43:04,VALID,914.109,VALID,0,VALID,97.4349,VALID,0,VALID,19.0593,VALID,23,VALID,0.439063,
2010-12-04, 02:44:04,VALID,914.091,VALID,0,VALID,97.4501,VALID,0,VALID,19.0803,VALID,23,VALID,0.721484,
2010-12-04, 02:45:04,VALID,914.099,VALID,0,VALID,97.4501,VALID,0,VALID,19.0788,VALID,21,VALID,1.10586,
2010-12-04, 02:46:04,VALID,914.097,VALID,0,VALID,97.4425,VALID,0,VALID,19.0593,VALID,354,VALID,0.0195313,
2010-12-04, 02:47:04,VALID,914.092,VALID,0,VALID,97.4273,VALID,0,VALID,19.0593,VALID,354,VALID,0,
2010-12-04, 02:48:04,VALID,914.079,VALID,0,VALID,97.4349,VALID,0,VALID,19.0608,VALID,354,VALID,0,
2010-12-04, 02:49:04,VALID,914.077,VALID,0,VALID,97.4501,VALID,0,VALID,19.0593,VALID,354,VALID,0,
2010-12-04, 02:50:04,VALID,914.049,VALID,0,VALID,97.4577,VALID,0,VALID,19.0788,VALID,354,VALID,0,
2010-12-04, 02:51:04,VALID,914.063,VALID,0,VALID,97.4349,VALID,0,VALID,19.0983,VALID,354,VALID,0,
2010-12-04, 02:52:04,VALID,914.099,VALID,0,VALID,97.4654,VALID,0,VALID,19.0788,VALID,354,VALID,0,
2010-12-04, 02:53:04,VALID,914.082,VALID,0,VALID,97.4654,VALID,0,VALID,19.0593,VALID,354,VALID,0,
2010-12-04, 02:54:04,VALID,914.054,VALID,0,VALID,97.4654,VALID,0,VALID,19.0788,VALID,354,VALID,0,
2010-12-04, 02:55:04,VALID,914.067,VALID,0,VALID,97.4654,VALID,0,VALID,19.0983,VALID,354,VALID,0,
2010-12-04, 02:56:04,VALID,914.036,VALID,0,VALID,97.4654,VALID,0,VALID,19.1178,VALID,354,VALID,0,
2010-12-04, 02:57:04,VALID,914.018,VALID,0,VALID,97.4806,VALID,0,VALID,19.1373,VALID,354,VALID,0,
2010-12-04, 02:58:04,VALID,914.038,VALID,0,VALID,97.4882,VALID,0,VALID,19.1568,VALID,354,VALID,0,
2010-12-04, 02:59:04,VALID,913.997,VALID,0,VALID,97.4882,VALID,0,VALID,19.1763,VALID,354,VALID,0,
2010-12-04, 03:00:04,VALID,913.977,VALID,0,VALID,97.4654,VALID,0,VALID,19.1373,VALID,354,VALID,0,
2010-12-04, 03:01:04,VALID,913.935,VALID,0,VALID,97.4501,VALID,0,VALID,19.0788,VALID,354,VALID,0.29375,
2010-12-04, 03:02:04,VALID,913.914,VALID,0,VALID,97.4425,VALID,0,VALID,19.0593,VALID,354,VALID,1.28281,
2010-12-04, 03:03:04,VALID,913.918,VALID,0,VALID,97.4577,VALID,0,VALID,19.0398,VALID,354,VALID,1.33359,
2010-12-04, 03:04:04,VALID,913.877,VALID,0,VALID,97.4577,VALID,0,VALID,19.0413,VALID,354,VALID,0.983203,
2010-12-04, 03:05:04,VALID,913.844,VALID,0,VALID,97.4654,VALID,0,VALID,19.0203,VALID,354,VALID,0.882813,
2010-12-04, 03:06:04,VALID,913.835,VALID,0,VALID,97.4577,VALID,0,VALID,19.0008,VALID,354,VALID,0.567578,
2010-12-04, 03:07:04,VALID,913.812,VALID,0,VALID,97.4577,VALID,0,VALID,19.0203,VALID,354,VALID,0.06875,
2010-12-04, 03:08:04,VALID,913.781,VALID,0,VALID,97.4806,VALID,0,VALID,19.0398,VALID,354,VALID,0.853906,
2010-12-04, 03:09:04,VALID,913.782,VALID,0,VALID,97.4654,VALID,0,VALID,19.0398,VALID,354,VALID,0.879687,
2010-12-04, 03:10:04,VALID,913.752,VALID,0,VALID,97.4882,VALID,0,VALID,19.0593,VALID,354,VALID,0.896094,
2010-12-04, 03:11:04,VALID,913.724,VALID,0.2,VALID,97.4425,VALID,0,VALID,19.0203,VALID,354,VALID,0.658594,
2010-12-04, 03:12:04,VALID,913.705,VALID,0,VALID,97.4882,VALID,0,VALID,19.0203,VALID,354,VALID,0.235156,
2010-12-04, 03:13:04,VALID,913.686,VALID,0,VALID,97.5035,VALID,0,VALID,19.0203,VALID,354,VALID,0,
2010-12-04, 03:14:04,VALID,913.646,VALID,0,VALID,97.4882,VALID,0,VALID,19.0189,VALID,354,VALID,0,
2010-12-04, 03:15:04,VALID,913.631,VALID,0,VALID,97.4959,VALID,0,VALID,19.0788,VALID,354,VALID,0,
2010-12-04, 03:16:04,VALID,913.609,VALID,0,VALID,97.4654,VALID,0,VALID,19.0788,VALID,354,VALID,0,
2010-12-04, 03:17:04,VALID,913.58,VALID,0,VALID,97.4806,VALID,0,VALID,19.0398,VALID,354,VALID,0.788672,
2010-12-04, 03:18:04,VALID,913.579,VALID,0,VALID,97.4882,VALID,0,VALID,19.0413,VALID,354,VALID,0.404687,
2010-12-04, 03:19:04,VALID,913.555,VALID,0,VALID,97.5035,VALID,0,VALID,19.0398,VALID,354,VALID,0,
2010-12-04, 03:20:04,VALID,913.531,VALID,0,VALID,97.4882,VALID,0,VALID,19.0593,VALID,354,VALID,0,
2010-12-04, 03:21:04,VALID,913.524,VALID,0,VALID,97.4806,VALID,0,VALID,19.0398,VALID,354,VALID,0.721484,
2010-12-04, 03:22:04,VALID,913.507,VALID,0,VALID,97.5035,VALID,0,VALID,19.0803,VALID,354,VALID,0.141016,
2010-12-04, 03:23:04,VALID,913.48,VALID,0,VALID,97.5035,VALID,0,VALID,19.0788,VALID,354,VALID,0.0457031,
2010-12-04, 03:24:04,VALID,913.489,VALID,0.2,VALID,97.5111,VALID,0,VALID,19.0774,VALID,354,VALID,0,
2010-12-04, 03:25:04,VALID,913.476,VALID,0,VALID,97.5187,VALID,0,VALID,19.0983,VALID,353,VALID,0.180078,
2010-12-04, 03:26:04,VALID,913.443,VALID,0,VALID,97.4959,VALID,0,VALID,19.1388,VALID,353,VALID,0.507813,
2010-12-04, 03:27:04,VALID,913.393,VALID,0,VALID,97.5111,VALID,0,VALID,19.0969,VALID,353,VALID,0.835156,
2010-12-04, 03:28:04,VALID,913.393,VALID,0,VALID,97.4882,VALID,0,VALID,19.0983,VALID,353,VALID,0.557031,
2010-12-04, 03:29:04,VALID,913.344,VALID,0,VALID,97.4806,VALID,0,VALID,19.0983,VALID,353,VALID,0.00195313,
2010-12-04, 03:30:04,VALID,913.341,VALID,0,VALID,97.5111,VALID,0,VALID,19.0983,VALID,353,VALID,0.44375,
2010-12-04, 03:31:04,VALID,913.315,VALID,0,VALID,97.5035,VALID,0,VALID,19.0969,VALID,353,VALID,0.285156,
2010-12-04, 03:32:04,VALID,913.313,VALID,0,VALID,97.5035,VALID,0,VALID,19.0983,VALID,353,VALID,0,
2010-12-04, 03:33:04,VALID,913.291,VALID,0,VALID,97.4959,VALID,0,VALID,19.0983,VALID,353,VALID,0,
2010-12-04, 03:34:04,VALID,913.296,VALID,0,VALID,97.4959,VALID,0,VALID,19.1178,VALID,353,VALID,0,
2010-12-04, 03:35:04,VALID,913.299,VALID,0,VALID,97.4959,VALID,0,VALID,19.1373,VALID,353,VALID,0,
2010-12-04, 03:36:04,VALID,913.274,VALID,0,VALID,97.5187,VALID,0,VALID,19.1583,VALID,353,VALID,0,
2010-12-04, 03:37:04,VALID,913.26,VALID,0.2,VALID,97.5187,VALID,0,VALID,19.1583,VALID,353,VALID,0,
2010-12-04, 03:38:04,VALID,913.278,VALID,0,VALID,97.4882,VALID,0,VALID,19.1568,VALID,353,VALID,0,
2010-12-04, 03:39:04,VALID,913.263,VALID,0,VALID,97.4959,VALID,0,VALID,19.1568,VALID,353,VALID,0,
2010-12-04, 03:40:04,VALID,913.257,VALID,0,VALID,97.5264,VALID,0,VALID,19.1568,VALID,353,VALID,0,
2010-12-04, 03:41:04,VALID,913.216,VALID,0,VALID,97.5111,VALID,0,VALID,19.1568,VALID,353,VALID,0,
2010-12-04, 03:42:04,VALID,913.273,VALID,0,VALID,97.4806,VALID,0,VALID,19.1973,VALID,353,VALID,0,
2010-12-04, 03:43:04,VALID,913.247,VALID,0,VALID,97.5035,VALID,0,VALID,19.1763,VALID,353,VALID,0,
2010-12-04, 03:44:04,VALID,913.228,VALID,0,VALID,97.5264,VALID,0,VALID,19.2168,VALID,353,VALID,0,
2010-12-04, 03:45:04,VALID,913.223,VALID,0,VALID,97.5111,VALID,0,VALID,19.2153,VALID,353,VALID,0,
2010-12-04, 03:46:04,VALID,913.191,VALID,0,VALID,97.5035,VALID,0,VALID,19.1568,VALID,353,VALID,0,